This demonstration page uses our WeatherBlox Daily Observations layout. Learn more.

Left ArrowRight Arrow

41.12389, -100.76542

Hourly Observations for August 3, 2019

Temp ( °F °C ) Dew Point ( °F °C ) Humidity (%) Winds ( mph kmh ) Pressure ( in mb ) Visibility ( mi km ) Precip ( " mm )
12:10 am 00:10 Mostly Cloudy 63 17.2 62 16.7 97 97 Calm 30.04 1017 10 16 0.00 0.00
12:29 am 00:29 Cloudy 65 18.3 62 16.7 90 90 Calm 30.02 1017 10 16 0.00 0.00
12:53 am 00:53 Cloudy 64 17.8 62 16.7 93 93 Calm 30.05 1018 10 16 0.00 0.00
1:53 am 01:53 Cloudy 67 19.4 64 17.8 91 91 Calm 30.05 1018 10 16 0.00 0.00
2:53 am 02:53 Cloudy 67 19.4 64 17.8 91 91 Calm 30.05 1018 10 16 0.00 0.00
3:17 am 03:17 Cloudy 67 19.4 64 17.8 91 91 Calm 30.03 1017 10 16 0.00 0.00
3:53 am 03:53 Cloudy 68 20 65 18.3 90 90 Calm 30.04 1017 10 16 0.00 0.00
4:46 am 04:46 Cloudy 68 20 65 18.3 90 90 Calm 30.01 1016 10 16 0.00 0.00
4:53 am 04:53 Cloudy 68 20 65 18.3 90 90 Calm 30.04 1017 10 16 0.00 0.00
5:53 am 05:53 Cloudy 69 20.6 66 18.9 90 90 Calm 30.03 1017 10 16 0.00 0.00
6:53 am 06:53 Cloudy with Mist and Fog 69 20.6 67 19.4 93 93 Calm 30.05 1018 3 5 0.00 0.00
7:53 am 07:53 Cloudy 69 20.6 67 19.4 93 93 Calm 30.06 1018 8 13 0.00 0.00
8:19 am 08:19 Cloudy 70 21.1 67 19.4 90 90 Calm 30.01 1016 10 16 0.00 0.00
8:53 am 08:53 Cloudy 71 21.7 66 18.9 84 84 Calm 30.06 1018 10 16 0.00 0.00
9:53 am 09:53 Cloudy 73 22.8 67 19.4 81 81 Calm 30.08 1019 10 16 0.00 0.00
10:09 am 10:09 Cloudy 73 22.8 67 19.4 81 81 Calm 30.00 1016 10 16 0.00 0.00
10:53 am 10:53 Cloudy 74 23.3 67 19.4 79 79 Calm 30.08 1019 10 16 0.00 0.00
11:07 am 11:07 Mostly Cloudy 75 23.9 67 19.4 76 76 Calm 29.99 1016 10 16 0.00 0.00
11:53 am 11:53 Mostly Cloudy 78 25.6 68 20 71 71 VRB 5 7 30.06 1018 10 16 0.00 0.00
12:53 pm 12:53 Mostly Sunny 82 27.8 67 19.4 60 60 VRB 3 6 30.05 1018 10 16 0.00 0.00
1:53 pm 13:53 Mostly Sunny 82 27.8 68 20 63 63 W 5 7 30.04 1017 10 16 0.00 0.00
2:53 pm 14:53 Sunny 84 28.9 67 19.4 57 57 Calm 30.02 1017 10 16 0.00 0.00
3:53 pm 15:53 Sunny 86 30 66 18.9 51 51 undefined N/A 30.01 1016 10 16 0.00 0.00
4:53 pm 16:53 Sunny 86 30 63 17.2 46 46 VRB 5 7 29.98 1015 10 16 0.00 0.00
5:53 pm 17:53 Sunny 86 30 63 17.2 46 46 VRB 7 11 29.97 1015 10 16 0.00 0.00
6:53 pm 18:53 Sunny 85 29.4 61 16.1 45 45 Calm 29.96 1014 10 16 0.00 0.00
7:53 pm 19:53 Sunny 80 26.7 68 20 67 67 SSE 5 7 29.96 1015 10 16 0.00 0.00
8:53 pm 20:53 Sunny 75 23.9 68 20 79 79 SE 5 7 29.97 1015 10 16 0.00 0.00
9:53 pm 21:53 Clear 71 21.7 67 19.4 87 87 SE 5 7 30.00 1016 10 16 0.00 0.00
10:53 pm 22:53 Clear 70 21.1 66 18.9 87 87 Calm 30.02 1017 10 16 0.00 0.00
11:53 pm 23:53 Clear 69 20.6 65 18.3 87 87 SSE 3 6 30.02 1017 10 16 0.00 0.00

Powered by AerisWeather